• In Uzbekistan
  • List of Countries
  • For 7 days
  • Water Temperature
  • Satellite Maps
  • Weather Map
  • Weather Widgets
  • user-avatar
    Login

    Hourly Weather Friesoythe

    Today, 19 October, Thursday

    Time Temperature Precipitation Wind Pressure Humidity
    00:00 +12°C° 0 mm 2 mps 759 mmHg 91%
    01:00 +12°C° 0 mm 2 mps 759 mmHg 91%
    02:00 +12°C° 0 mm 2 mps 759 mmHg 91%
    03:00 +12°C° 0 mm 2 mps 758 mmHg 90%
    04:00 +12°C° 0 mm 2 mps 758 mmHg 90%
    05:00 +12°C° 0 mm 2 mps 758 mmHg 91%
    06:00 +12°C° 0 mm 2 mps 758 mmHg 92%
    07:00 +12°C° 0 mm 2 mps 758 mmHg 93%
    08:00 +13°C° 0 mm 2 mps 758 mmHg 90%
    09:00 +15°C° 0 mm 2 mps 758 mmHg 86%
    10:00 +16°C° 0 mm 2 mps 758 mmHg 83%
    11:00 +17°C° 0 mm 3 mps 758 mmHg 80%
    12:00 +18°C° 0 mm 3 mps 758 mmHg 76%
    13:00 +20°C° 0 mm 3 mps 758 mmHg 73%
    14:00 +19°C° 0 mm 3 mps 757 mmHg 74%
    15:00 +19°C° 0 mm 3 mps 757 mmHg 76%
    16:00 +19°C° 0 mm 3 mps 757 mmHg 77%
    17:00 +18°C° 0 mm 3 mps 757 mmHg 81%
    18:00 +16°C° 0 mm 3 mps 757 mmHg 85%
    19:00 +14°C° 0 mm 3 mps 757 mmHg 88%
    20:00 +14°C° 0 mm 3 mps 757 mmHg 88%
    21:00 +14°C° 0 mm 3 mps 757 mmHg 88%
    22:00 +13°C° 0 mm 4 mps 757 mmHg 88%
    23:00 +14°C° 0 mm 4 mps 757 mmHg 86%

    Tomorrow, 20 October, Friday

    Time Temperature Precipitation Wind Pressure Humidity
    00:00 +14°C° 0 mm 4 mps 757 mmHg 84%
    01:00 +14°C° 0 mm 4 mps 757 mmHg 83%
    02:00 +15°C° 0.1 mm 4 mps 757 mmHg 80%
    03:00 +15°C° 0.1 mm 4 mps 756 mmHg 77%
    04:00 +15°C° 0.1 mm 4 mps 756 mmHg 74%
    05:00 +15°C° 0 mm 4 mps 756 mmHg 74%
    06:00 +14°C° 0 mm 4 mps 756 mmHg 73%
    07:00 +14°C° 0 mm 4 mps 756 mmHg 73%
    08:00 +14°C° 0.4 mm 5 mps 757 mmHg 77%
    09:00 +15°C° 0.4 mm 6 mps 757 mmHg 81%
    10:00 +15°C° 0.4 mm 6 mps 757 mmHg 85%
    11:00 +15°C° 0.4 mm 6 mps 757 mmHg 82%
    12:00 +15°C° 0.4 mm 6 mps 758 mmHg 78%
    13:00 +16°C° 0.4 mm 6 mps 758 mmHg 75%
    14:00 +15°C° 0.1 mm 6 mps 758 mmHg 74%
    15:00 +15°C° 0.1 mm 6 mps 758 mmHg 74%
    16:00 +15°C° 0.1 mm 5 mps 758 mmHg 73%
    17:00 +13°C° 0 mm 5 mps 759 mmHg 75%
    18:00 +12°C° 0 mm 4 mps 759 mmHg 77%
    19:00 +11°C° 0 mm 4 mps 759 mmHg 78%
    20:00 +11°C° 0 mm 4 mps 760 mmHg 79%
    21:00 +10°C° 0 mm 4 mps 760 mmHg 79%
    22:00 +10°C° 0 mm 3 mps 760 mmHg 80%
    23:00 +10°C° 0 mm 3 mps 760 mmHg 81%

    Day after tomorrow, 21 October, Saturday

    Time Temperature Precipitation Wind Pressure Humidity
    00:00 +9°C° 0 mm 3 mps 760 mmHg 82%
    01:00 +9°C° 0 mm 3 mps 760 mmHg 83%
    02:00 +10°C° 0 mm 4 mps 759 mmHg 81%
    03:00 +10°C° 0 mm 4 mps 759 mmHg 79%
    04:00 +11°C° 0 mm 4 mps 759 mmHg 77%
    05:00 +10°C° 0 mm 5 mps 758 mmHg 78%
    06:00 +10°C° 0 mm 5 mps 758 mmHg 78%
    07:00 +10°C° 0 mm 5 mps 757 mmHg 78%
    08:00 +10°C° 0.5 mm 5 mps 757 mmHg 82%
    09:00 +12°C° 0.5 mm 5 mps 757 mmHg 86%
    10:00 +13°C° 0.5 mm 5 mps 757 mmHg 90%
    11:00 +13°C° 0.2 mm 6 mps 757 mmHg 90%
    12:00 +14°C° 0.2 mm 6 mps 757 mmHg 90%
    13:00 +15°C° 0.2 mm 6 mps 756 mmHg 89%
    14:00 +15°C° 0.1 mm 6 mps 756 mmHg 86%
    15:00 +15°C° 0.1 mm 6 mps 756 mmHg 83%
    16:00 +15°C° 0.1 mm 6 mps 756 mmHg 80%
    17:00 +14°C° 0 mm 5 mps 756 mmHg 81%
    18:00 +13°C° 0 mm 5 mps 756 mmHg 82%
    19:00 +12°C° 0 mm 5 mps 757 mmHg 83%
    20:00 +10°C° 0 mm 5 mps 757 mmHg 81%
    21:00 +10°C° 0 mm 6 mps 757 mmHg 79%
    22:00 +10°C° 0 mm 6 mps 757 mmHg 77%
    23:00 +9°C° 0 mm 6 mps 757 mmHg 77%

    22 October, Sunday

    Time Temperature Precipitation Wind Pressure Humidity
    00:00 +9°C° 0 mm 7 mps 756 mmHg 77%
    01:00 +9°C° 0 mm 7 mps 756 mmHg 76%
    02:00 +9°C° 0 mm 7 mps 756 mmHg 77%
    03:00 +9°C° 0 mm 7 mps 756 mmHg 77%
    04:00 +8°C° 0 mm 7 mps 756 mmHg 78%
    05:00 +8°C° 0 mm 7 mps 756 mmHg 78%
    06:00 +8°C° 0 mm 7 mps 756 mmHg 78%
    07:00 +8°C° 0 mm 7 mps 756 mmHg 78%
    08:00 +9°C° 0 mm 8 mps 756 mmHg 76%
    09:00 +9°C° 0 mm 8 mps 756 mmHg 75%
    10:00 +10°C° 0 mm 9 mps 757 mmHg 74%
    11:00 +10°C° 0.1 mm 9 mps 757 mmHg 73%
    12:00 +11°C° 0.1 mm 9 mps 757 mmHg 72%
    13:00 +11°C° 0.1 mm 9 mps 757 mmHg 72%
    14:00 +10°C° 0.2 mm 8 mps 757 mmHg 75%
    15:00 +10°C° 0.2 mm 8 mps 757 mmHg 79%
    16:00 +9°C° 0.2 mm 7 mps 757 mmHg 82%
    17:00 +9°C° 0.2 mm 7 mps 757 mmHg 84%
    18:00 +9°C° 0.2 mm 7 mps 757 mmHg 85%
    19:00 +8°C° 0.2 mm 7 mps 758 mmHg 87%
    20:00 +8°C° 0.2 mm 7 mps 758 mmHg 88%
    21:00 +9°C° 0.2 mm 7 mps 758 mmHg 89%
    22:00 +9°C° 0.2 mm 6 mps 758 mmHg 89%
    23:00 +9°C° 0 mm 6 mps 758 mmHg 90%

    23 October, Monday

    Time Temperature Precipitation Wind Pressure Humidity
    00:00 +9°C° 0 mm 6 mps 759 mmHg 91%
    01:00 +8°C° 0 mm 6 mps 759 mmHg 92%
    02:00 +9°C° 0 mm 5 mps 759 mmHg 92%
    03:00 +9°C° 0 mm 5 mps 760 mmHg 92%
    04:00 +9°C° 0 mm 5 mps 760 mmHg 92%
    05:00 +8°C° 0.1 mm 5 mps 761 mmHg 92%
    06:00 +8°C° 0.1 mm 5 mps 761 mmHg 92%
    07:00 +8°C° 0.1 mm 5 mps 762 mmHg 92%
    08:00 +9°C° 0 mm 5 mps 762 mmHg 89%
    09:00 +10°C° 0 mm 5 mps 763 mmHg 86%
    10:00 +12°C° 0 mm 5 mps 763 mmHg 82%
    11:00 +12°C° 0 mm 5 mps 763 mmHg 81%
    12:00 +13°C° 0 mm 6 mps 763 mmHg 80%
    13:00 +13°C° 0 mm 6 mps 763 mmHg 79%
    14:00 +13°C° 0.2 mm 6 mps 763 mmHg 82%
    15:00 +11°C° 0.2 mm 6 mps 764 mmHg 85%
    16:00 +12°C° 0.2 mm 5 mps 764 mmHg 89%
    17:00 +11°C° 0.3 mm 6 mps 764 mmHg 90%
    18:00 +11°C° 0.3 mm 6 mps 764 mmHg 91%
    19:00 +11°C° 0.3 mm 7 mps 764 mmHg 92%
    20:00 +11°C° 0.2 mm 7 mps 764 mmHg 91%
    21:00 +11°C° 0.2 mm 7 mps 764 mmHg 91%
    22:00 +11°C° 0.2 mm 7 mps 764 mmHg 91%
    23:00 +11°C° 0.2 mm 7 mps 764 mmHg 91%

    24 October, Tuesday

    Time Temperature Precipitation Wind Pressure Humidity
    00:00 +11°C° 0.2 mm 7 mps 764 mmHg 92%
    01:00 +11°C° 0.2 mm 7 mps 764 mmHg 92%
    02:00 +11°C° 0.1 mm 6 mps 764 mmHg 92%
    03:00 +13°C° 0.1 mm 6 mps 763 mmHg 93%
    04:00 +13°C° 0.1 mm 6 mps 763 mmHg 93%
    05:00 +13°C° 0.2 mm 6 mps 763 mmHg 93%
    06:00 +13°C° 0.2 mm 6 mps 764 mmHg 93%
    07:00 +13°C° 0.2 mm 6 mps 764 mmHg 93%
    08:00 +13°C° 0.1 mm 6 mps 764 mmHg 93%
    09:00 +13°C° 0.1 mm 6 mps 764 mmHg 92%
    10:00 +13°C° 0.1 mm 6 mps 764 mmHg 92%
    11:00 +14°C° 0 mm 6 mps 764 mmHg 90%
    12:00 +14°C° 0 mm 7 mps 764 mmHg 89%
    13:00 +14°C° 0 mm 7 mps 764 mmHg 88%
    14:00 +14°C° 0 mm 6 mps 764 mmHg 87%
    15:00 +14°C° 0 mm 6 mps 764 mmHg 86%
    16:00 +15°C° 0 mm 6 mps 764 mmHg 85%
    17:00 +14°C° 0 mm 5 mps 764 mmHg 86%
    18:00 +14°C° 0 mm 5 mps 764 mmHg 86%
    19:00 +13°C° 0 mm 5 mps 764 mmHg 87%
    20:00 +13°C° 0 mm 5 mps 764 mmHg 87%
    21:00 +13°C° 0 mm 5 mps 765 mmHg 87%
    22:00 +13°C° 0 mm 5 mps 765 mmHg 87%
    23:00 +13°C° 0 mm 5 mps 765 mmHg 86%
    Show more